Вернуться в каталог

ONEWEB-0292

АктивенСвязьPO
NORAD 49186·PAYLOAD·🇬🇧 United Kingdom

Запущен Sep 14, 2021 с Baikonur Cosmodrome

Loading…

Ближайшие Пролёты (ближайшие 24 часа)

TLE

СвежийSource: CelesTrak SupGP

Эпоха: Sep 14, 2026, 20:00 UTC

1 49186C 21083A   26257.83352269 -.00000765  00000+0 -20986-2 0  2575
2 49186  87.8908 302.4013 0002036 101.0689 291.8008 13.13465852    16

Отслеживайте ONEWEB-0292 в реальном времени с AllMySat

Download on the App Store